Location: Lawrence Hall of Science
(37.8785°N, 122.2415°W)
Time: 17:14:54
(UTC-07:00)

Cosmos 2151 - Visible Passes

Search period start: 16 October 2017 00:00
Search period end: 26 October 2017 00:00
Orbit: 583 x 601 km, 82.5° (Epoch: 16 October)

Date Brightness Start Highest point End Pass type
(mag) Time Alt. Az. Time Alt. Az. Time Alt. Az.
16 Oct 3.3 19:15:04 10° N 19:19:11 44° E 19:23:15 10° SSE visible
16 Oct 6.2 20:54:09 10° WNW 20:56:00 13° W 20:57:51 10° WSW visible
17 Oct 2.9 19:23:47 10° N 19:28:04 72° E 19:32:18 10° SSE visible
18 Oct 3.2 19:32:38 10° NNW 19:36:55 72° W 19:41:07 10° S visible
19 Oct 4.2 19:41:38 10° NNW 19:45:42 44° W 19:49:44 10° SSW visible
20 Oct 5.2 19:50:48 10° NNW 19:54:28 28° W 19:58:05 10° SSW visible
21 Oct 6.5 06:40:46 10° ESE 06:42:32 12° E 06:44:18 10° ENE visible
21 Oct 5.9 20:00:14 10° NW 20:03:11 18° W 20:06:06 10° SW visible
22 Oct 6.1 06:48:11 10° SE 06:51:13 19° E 06:54:16 10° NE visible
22 Oct 6.5 20:10:17 10° WNW 20:11:51 12° W 20:13:24 10° WSW visible
23 Oct 5.4 06:56:14 10° SSE 06:59:56 29° E 07:03:40 10° NNE visible
23 Oct 2.9 18:39:40 10° N 18:43:56 76° E 18:48:09 10° S visible
24 Oct 3.4 18:48:32 10° NNW 18:52:46 67° W 18:56:57 10° S visible
25 Oct 4.5 18:57:33 10° NNW 19:01:33 41° W 19:05:32 10° SSW visible
